Location: Unspecified
(43.4680°N, 87.1740°E)
Time: 21:27:52
(UTC+00:00)

SL-16 R/B - Pass Details

Date: 17 April 2021
Orbit: 985 x 1006 km, 99.5° (Epoch: 12 May)

Event Time Altitude Azimuth Distance (km) Brightness Sun altitude
Exits shadow 18:30:39 21° 79° (E) 2,080 4.3 -35.6°
Maximum altitude 18:32:11 23° 59° (ENE) 1,984 4.4 -35.6°
Drops below altitude 10° 18:36:55 10° 9° (N) 2,791 5.7 -35.5°
Sets 18:39:54 0° 356° (N) 3,746 6.5 -35.4°
